South Lake Tahoe, CA

6:37 AM PDT on May 24, 2017 (GMT -0700)
Lake Tahoe

Weather History for KTVL - March, 2014

Change the Weather History Date:

Monday, March 31, 2014

  Actual Average Record
Temperature  
Mean Temperature 30 °F 38 °F  
Max Temperature 40 °F 51 °F 63 °F (1986)
Min Temperature 20 °F 25 °F 11 °F (1977)
Degree Days  
Heating Degree Days 35 27  
Month to date heating degree days 785 916  
Since 1 July heating degree days 5400 6152  
Cooling Degree Days 0 0  
Month to date cooling degree days 0 0  
Year to date cooling degree days 0 0  
Moisture  
Dew Point 23 °F    
Average Humidity 67    
Maximum Humidity 85    
Minimum Humidity 48    
Precipitation  
Precipitation 0.22 in - 1.86 in (1982)
Month to date precipitation 2.10  
Year to date precipitation 10.34  
Sea Level Pressure  
Sea Level Pressure 29.76 in    
Wind  
Wind Speed 7 mph (SSW)    
Max Wind Speed 23 mph    
Max Gust Speed 33 mph    
Visibility 5 miles    
Events Fog , Snow    
T = Trace of Precipitation, MM = Missing Value Source: NWS Daily Summary

Daily Weather History Graph

Daily Weather History Graph

Search for Another Location

Airport or City:

Trip Planner

Search our weather history database for the weather conditions in past years. The results will help you decide how hot, cold, wet, or windy it might be!

Date:

Astronomy

Mar. 31, 2014 Rise Set
Actual Time 6:46 AM PDT 7:22 PM PDT
Civil Twilight 6:19 AM PDT 7:49 PM PDT
Nautical Twilight 5:47 AM PDT 8:21 PM PDT
Astronomical Twilight 5:15 AM PDT 8:53 PM PDT
Moon 7:13 AM PDT (3/31) 8:46 PM PDT (3/31)
Length of Visible Light 13h 30m
Length of Day
12h 36m
New Moon, 1% of the Moon is Illuminated
Mar 31
New Moon
Apr 7
First Quarter
Apr 15
Full
Apr 22
Last Quarter
Apr 28
New

Hourly Weather History & Observations

Time (PDT) Temp. Windchill Dew Point Humidity Pressure Visibility Wind Dir Wind Speed Gust Speed Precip Events Conditions
12:53 AM 30.9 °F - 21.9 °F 69% 29.96 in 10.0 mi Calm Calm - N/A   Overcast
1:53 AM 30.9 °F - 21.9 °F 69% 29.94 in 10.0 mi Calm Calm - N/A   Overcast
2:53 AM 30.0 °F - 21.9 °F 72% 29.92 in 10.0 mi Calm Calm - N/A   Overcast
3:53 AM 30.9 °F 24.3 °F 18.0 °F 59% 29.91 in 10.0 mi SSW 6.9 mph - N/A   Partly Cloudy
4:53 AM 32.0 °F 23.6 °F 19.0 °F 59% 29.90 in 10.0 mi SSW 10.4 mph - N/A   Mostly Cloudy
5:53 AM 32.0 °F 25.6 °F 18.0 °F 56% 29.90 in 10.0 mi SSW 6.9 mph - N/A   Mostly Cloudy
6:53 AM 32.0 °F 24.2 °F 19.0 °F 59% 29.89 in 10.0 mi South 9.2 mph - N/A   Overcast
7:53 AM 32.0 °F 24.8 °F 19.9 °F 61% 29.88 in 10.0 mi South 8.1 mph - N/A   Overcast
8:53 AM 34.0 °F 25.5 °F 23.0 °F 64% 29.86 in 6.0 mi South 11.5 mph - N/A   Haze
9:53 AM 34.0 °F 24.6 °F 21.9 °F 61% 29.85 in 8.0 mi SSW 13.8 mph 19.6 mph N/A   Overcast
10:53 AM 35.1 °F 26.9 °F 21.9 °F 59% 29.85 in 9.0 mi SSW 11.5 mph - 0.00 in   Overcast
11:53 AM 37.9 °F 32.7 °F 21.9 °F 53% 29.81 in 10.0 mi SW 6.9 mph - N/A   Overcast
12:53 PM 37.9 °F 33.5 °F 21.0 °F 51% 29.79 in 10.0 mi South 5.8 mph 16.1 mph N/A   Overcast
1:53 PM 37.9 °F 30.0 °F 19.9 °F 48% 29.77 in 10.0 mi SSW 12.7 mph 25.3 mph N/A   Overcast
2:53 PM 37.0 °F 29.8 °F 23.0 °F 57% 29.74 in 10.0 mi SSW 10.4 mph 24.2 mph N/A   Overcast
3:10 PM 36.0 °F 28.0 °F 26.1 °F 67% 29.76 in 2.5 mi South 11.5 mph 23.0 mph 0.00 in Snow Light Snow
3:16 PM 35.1 °F 27.4 °F 27.0 °F 72% 29.76 in 1.8 mi SSW 10.4 mph - 0.00 in Snow Light Snow
3:46 PM 35.1 °F 27.4 °F 28.0 °F 76% 29.74 in 3.0 mi South 10.4 mph - 0.00 in Snow Light Snow
3:51 PM 35.6 °F 26.2 °F 28.4 °F 75% 29.74 in 1.8 mi South 15.0 mph - 0.00 in Snow Light Snow
3:53 PM 35.1 °F 26.4 °F 28.0 °F 76% 29.72 in 1.2 mi South 12.7 mph - 0.00 in Snow Light Snow
4:03 PM 34.0 °F 25.0 °F 28.0 °F 79% 29.74 in 0.8 mi South 12.7 mph - 0.00 in Snow Light Snow
4:17 PM 34.0 °F 26.6 °F 28.0 °F 79% 29.74 in 0.8 mi SSW 9.2 mph - 0.00 in Snow Light Snow
4:53 PM 32.0 °F 22.1 °F 27.0 °F 82% 29.71 in 0.2 mi SSW 13.8 mph - 0.00 in Snow Heavy Snow
5:33 PM 32.0 °F 23.6 °F 27.0 °F 82% 29.70 in 0.2 mi SSW 10.4 mph - 0.01 in Snow Heavy Snow
5:53 PM 32.0 °F 23.0 °F 27.0 °F 82% 29.68 in 0.2 mi SSW 11.5 mph - 0.02 in Snow Heavy Snow
6:06 PM 32.0 °F 24.2 °F 27.0 °F 82% 29.69 in 0.8 mi SSW 9.2 mph - 0.00 in Snow Light Snow
6:16 PM 32.0 °F 24.2 °F 27.0 °F 82% 29.68 in 0.2 mi SSW 9.2 mph - 0.00 in Snow Heavy Snow
6:24 PM 32.0 °F 24.8 °F 27.0 °F 82% 29.67 in 0.5 mi SSW 8.1 mph - 0.00 in Snow Snow
6:35 PM 32.0 °F 24.2 °F 26.1 °F 79% 29.67 in 1.0 mi SSW 9.2 mph - 0.00 in Snow Light Snow
6:53 PM 32.0 °F 23.6 °F 26.1 °F 79% 29.66 in 0.8 mi SSW 10.4 mph - 0.01 in Snow Light Snow
7:02 PM 32.0 °F 27.5 °F 27.0 °F 82% 29.67 in 0.2 mi SSW 4.6 mph - 0.00 in Snow Heavy Snow
7:09 PM 32.0 °F 25.6 °F 27.0 °F 82% 29.67 in 0.2 mi SSW 6.9 mph - 0.01 in Snow Heavy Snow
7:45 PM 30.9 °F 24.3 °F 27.0 °F 85% 29.67 in 0.5 mi SSW 6.9 mph - 0.07 in Fog , Snow Snow
7:53 PM 30.9 °F 23.5 °F 27.0 °F 85% 29.67 in 0.5 mi SSW 8.1 mph - 0.09 in Fog , Snow Snow
8:20 PM 30.0 °F 23.2 °F 24.1 °F 79% 29.69 in 0.5 mi South 6.9 mph - 0.01 in Snow Snow
8:53 PM 28.9 °F 20.4 °F 25.0 °F 85% 29.69 in 0.5 mi South 9.2 mph - 0.05 in Fog , Snow Snow
9:53 PM 28.0 °F 18.1 °F 21.9 °F 78% 29.73 in 0.5 mi SSW 11.5 mph 18.4 mph 0.05 in Snow Snow
10:07 PM 27.0 °F 18.7 °F 21.0 °F 78% 29.73 in 1.5 mi SSE 8.1 mph - 0.00 in Snow Light Snow
10:13 PM 27.0 °F 23.0 °F 21.0 °F 78% 29.73 in 3.0 mi SSE 3.5 mph - 0.00 in Snow Light Snow
10:22 PM 27.0 °F 23.0 °F 21.0 °F 78% 29.73 in 7.0 mi SSE 3.5 mph - 0.00 in Snow Light Snow
10:32 PM 27.0 °F 18.7 °F 21.0 °F 78% 29.73 in 3.0 mi South 8.1 mph - 0.00 in Snow Light Snow
10:41 PM 27.0 °F - 21.0 °F 78% 29.74 in 5.0 mi Calm Calm - 0.00 in Snow Light Snow
10:53 PM 27.0 °F - 19.9 °F 75% 29.74 in 7.0 mi North - - 0.00 in Snow Light Snow
11:07 PM 25.0 °F 20.7 °F 14.0 °F 63% 29.74 in 10.0 mi Variable 3.5 mph - 0.00 in   Scattered Clouds
11:53 PM 24.1 °F 16.0 °F 16.0 °F 71% 29.75 in 10.0 mi SSW 6.9 mph - 0.00 in   Clear